This is the latest recevied weather packets stored in our database for station/object DG0LHZ-10. If no packets are shown the sender has not sent any weather packets the latest 10 day(s).
| Time | Temp. | Humidity | Pressure | Rain* | Wind** | Luminosity | Snow |
|---|---|---|---|---|---|---|---|
| 1777532640 | 8.33° C | 39% | 1034.8 hPa | - | - | - | - |
| 1777531740 | 7.22° C | 40% | 1034.8 hPa | - | - | - | - |
| 1777530840 | 6.11° C | 41% | 1034.8 hPa | - | - | - | - |
| 1777529940 | 5.56° C | 42% | 1034.7 hPa | - | - | - | - |
| 1777529040 | 5° C | 43% | 1034.7 hPa | - | - | - | - |
| 1777528139 | 4.44° C | 43% | 1034.7 hPa | - | - | - | - |
| 1777527239 | 3.89° C | 42% | 1034.6 hPa | - | - | - | - |
| 1777526339 | 3.33° C | 41% | 1034.5 hPa | - | - | - | - |
| 1777525439 | 3.33° C | 41% | 1034.5 hPa | - | - | - | - |
| 1777524539 | 3.33° C | 40% | 1034.3 hPa | - | - | - | - |
| 1777523639 | 3.33° C | 40% | 1034.1 hPa | - | - | - | - |
| 1777522739 | 3.33° C | 40% | 1034 hPa | - | - | - | - |
| 1777521839 | 3.33° C | 39% | 1033.9 hPa | - | - | - | - |
| 1777520939 | 3.33° C | 39% | 1033.9 hPa | - | - | - | - |
| 1777520039 | 3.89° C | 39% | 1033.7 hPa | - | - | - | - |
| 1777519139 | 3.89° C | 38% | 1033.8 hPa | - | - | - | - |
| 1777518239 | 3.89° C | 38% | 1033.8 hPa | - | - | - | - |
| 1777517339 | 4.44° C | 38% | 1033.7 hPa | - | - | - | - |
| 1777516439 | 4.44° C | 37% | 1033.7 hPa | - | - | - | - |
| 1777515539 | 4.44° C | 37% | 1033.7 hPa | - | - | - | - |
| 1777514638 | 5° C | 37% | 1033.6 hPa | - | - | - | - |
| 1777513738 | 5° C | 36% | 1033.4 hPa | - | - | - | - |
| 1777512838 | 5° C | 36% | 1033.5 hPa | - | - | - | - |
| 1777511938 | 5.56° C | 35% | 1033.5 hPa | - | - | - | - |
| 1777511038 | 5.56° C | 35% | 1033.3 hPa | - | - | - | - |
* Rain since midnight (hover to see other rain measurements)
** Current wind speed in m/s (hover to see current wind gust speed)